Regional Weather Roundup
Issued by NWS

Home | Current Version | Previous Version | Text Only | Print | Product List | Glossary Off
Versions: 1 2 3 4 5 6 7 8 9 10 11 12 13 14 15 16 17 18 19 20 21 22 23 24 25 26 27 28 29 30 31 32 33 34 35 36 37 38 39 40 41 42 43 44 45 46 47 48 49 50

000
ASUS43 KMPX 160310
RWRMN
WEATHER ROUNDUP FOR MINNESOTA
NATIONAL WEATHER SERVICE TWIN CITIES/CHANHASSEN MN
1000 PM CDT TUE AUG 15 2017


NOTE: "FAIR" INDICATES FEW OR NO CLOUDS BELOW 12,000 FEET WITH NO
SIGNIFICANT WEATHER AND/OR OBSTRUCTIONS TO VISIBILITY. N/A MEANS
CURRENT SKY AND/OR WEATHER CONDITIONS ARE NOT AVAILABLE.

MNZ060>063-068>070-160400-
   Twin Cities Metro

CITY           SKY/WX    TMP DP  RH WIND       PRES   REMARKS
TWIN CITIES    CLOUDY    69  60  73 SE7       29.95R
ST PAUL        CLOUDY    66  61  84 SE5       29.95R
CRYSTAL        CLOUDY    69  57  65 SE6       29.94R
BLAINE         CLEAR     70  61  73 CALM      29.95R
LAKEVILLE      CLOUDY    61  61 100 CALM      29.95S
EDEN PRAIRIE   CLOUDY    69  60  73 E7        29.93S
SOUTH ST PAUL  CLOUDY    67  60  77 CALM      29.95S
LAKE ELMO      FAIR      64  61  88 CALM      29.97S
$$
MNZ001>005-007-008-013>017-022>024-027-028-160400-
   Northwest Minnesota

CITY           SKY/WX    TMP DP  RH WIND       PRES   REMARKS
BEMIDJI        CLOUDY    68  59  73 SE5       29.93S
HALLOCK        LGT RAIN  66  63  88 SE3       29.88S
ROSEAU         CLOUDY    66  61  82 CALM      29.92R
WARROAD        CLOUDY    68  64  88 CALM      29.92S
THIEF RVR FALL CLOUDY    66  60  81 E5        29.92R
CROOKSTON      CLOUDY    70  61  73 E6        29.89R
FOSSTON        CLOUDY    64  57  77 CALM      29.93R
DETROIT LAKES  CLOUDY    68  59  73 SE9       29.93R
MOORHEAD       CLOUDY    66  61  82 SE5       29.88S
PARK RAPIDS    CLOUDY    69  60  73 SE6       29.94R
MAHNOMEN       CLOUDY    67  59  75 SE6       29.91R
$$
MNZ006-009>011-018-025>026-160400-
   North Central Minnesota

CITY           SKY/WX    TMP DP  RH WIND       PRES   REMARKS
BAUDETTE       CLOUDY    66  61  84 CALM      29.93R
FLAG ISLAND    PTCLDY    72  63  73 CALM      29.91S HAZE
INTL FALLS     CLOUDY    67  59  75 CALM      29.93S
WASKISH        CLOUDY    64  63  94 CALM      29.94R
BIG FORK       CLOUDY    63  61  94 CALM      29.96R
LONGVILLE      CLOUDY    59  57  94 CALM      29.95R
GRAND RAPIDS   CLOUDY    64  58  80 SE5       29.99R
CRANE LAKE     CLOUDY    64  57  77 CALM      29.98S
ORR            CLOUDY    64  55  72 SE3       29.94S
COOK             N/A     64  57  77 SE6       29.98S
WALKER         CLOUDY    66  60  80 SE3       29.95R
$$
MNZ012-019>021-037-160400-
   Northeast Minnesota

CITY           SKY/WX    TMP DP  RH WIND       PRES   REMARKS
DULUTH         CLOUDY    58  56  93 E15       29.99S
ELY            CLOUDY    57  46  67 SE3       30.00F
HIBBING        CLOUDY    59  56  89 SE6       29.98R
EVELETH        CLOUDY    60  53  77 CALM      30.00S
DULUTH HARBOR  PTCLDY    64  61  88 NE17      29.99R
GRAND MARAIS     N/A     55  52  89 N3        30.02F
G MARAIS ARPRT CLEAR     52  46  82 CALM      30.05F
$$
MNZ029>031-032-039>041-046>048-054>057-064-160400-
   West Central Minnesota

CITY           SKY/WX    TMP DP  RH WIND       PRES   REMARKS
FERGUS FALLS   MOCLDY    66  57  72 SE6       29.90R
WHEATON        CLOUDY    63  59  88 SE3       29.90R
MORRIS         CLOUDY    64  61  88 SE9       29.89S
ALEXANDRIA     CLOUDY    64  58  80 SE6       29.94R
ELBOW LAKE     FAIR      65  58  80 SE7       29.91R
WADENA         CLOUDY    64  59  82 CALM      29.95R
GLENWOOD       CLOUDY    61  57  88 E6        29.94R
APPLETON       CLOUDY    66  61  82 SE7       29.89S
BENSON         MOCLDY    66  61  82 S7        29.92S
ORTONVILLE     CLOUDY    64  61  88 MISG      29.88F
MADISON        CLOUDY    66  66 100 SE6       29.89S
WILLMAR        FAIR      66  63  88 E7        29.93R
$$
MNZ033>034-036-042>043-049>051-058-059-160400-
   Central Minnesota

CITY           SKY/WX    TMP DP  RH WIND       PRES   REMARKS
ST CLOUD       MOCLDY    67  58  72 SE7       29.94R
SAUK CENTRE    FAIR      64  59  84 E6        29.94R
PAYNESVILLE    CLOUDY    67  61  80 SE6       29.94R
AITKIN         PTCLDY    63  59  88 E5        29.95R
PINE RIVER     CLOUDY    59  55  88 CALM      29.98R
BRAINERD       PTCLDY    65  59  81 SE3       29.95R
STAPLES        CLOUDY    64  57  77 CALM      29.95R
LONG PRAIRIE   FAIR      63  55  77 E6        29.95R
LITTLE FALLS   PTCLDY    64  55  72 E6        29.94R
LITCHFIELD     MOCLDY    66  63  88 SE10      29.93S
BUFFALO        CLOUDY    66  58  76 CALM      29.96R
MAPLE LAKE     MOCLDY    67  61  81 SE3       29.95R
HUTCHINSON     CLOUDY    66  62  87 E9        29.94R
$$
MNZ037-044-045-052-053-160400-
   East Central Minnesota

CITY           SKY/WX    TMP DP  RH WIND       PRES   REMARKS
PRINCETON      CLOUDY    66  61  82 CALM      29.96R
MORA           CLOUDY    63  57  82 CALM      29.98R
RUSH CITY      MOCLDY    62  58  89 CALM      29.96R
MOOSE LAKE     PTCLDY    61  59  94 NE6       29.96R
HINCKLEY       FAIR      61  61 100 CALM      29.96R
CLOQUET        CLOUDY    61  54  77 E6        29.98S
MCGREGOR       CLOUDY    63  59  88 E3        29.98R
$$
MNZ071>073-080-081-089-090-097-098-160400-
   Southwest Minnesota

CITY           SKY/WX    TMP DP  RH WIND       PRES   REMARKS
MONTEVIDEO     MOCLDY    64  63  94 S6        29.91R
GRANITE FALLS  MOCLDY    67  64  90 E5        29.91S
CANBY          CLOUDY    65  62  89 CALM      29.90S
MARSHALL       CLOUDY    65  62  90 SE9       29.90R
REDWOOD FALLS  MOCLDY    66  61  84 SE8       29.90R
OLIVIA         MOCLDY    64  61  88 E6        29.91R
PIPESTONE      CLOUDY    66  63  88 SE10      29.89S
WINDOM         CLOUDY    64  63  94 E8        29.91R
WORTHINGTON    CLOUDY    64  63  96 SE9       29.91R
JACKSON        LGT SNOW  64  63  94 SE8       29.91S
TRACY          CLOUDY    65  64  94 SE7       29.91R
SLAYTON        CLOUDY    64  58  82 E6        29.91R
$$
MNZ065>067-074>077-082>085-091>093-160400-
   South Central Minnesota

CITY           SKY/WX    TMP DP  RH WIND       PRES   REMARKS
MANKATO        MOCLDY    65  61  87 E9        29.93S
NEW ULM        CLOUDY    64  61  88 E10       29.91S
ST JAMES       MOCLDY    64  63  94 E7        29.92S
FAIRMONT       LGT RAIN  66  63  90 SE8       29.92R
GLENCOE        MOCLDY    67  64  90 E7        29.92F
FARIBAULT      CLOUDY    64  61  88 E5        29.95R
OWATONNA       CLOUDY    64  61  88 E6        29.95R
WASECA         MOCLDY    63  59  88 E7        29.95R
ALBERT LEA     CLOUDY    66  63  88 E9        29.94S
$$
MNZ078>079-086>088-094>096-160400-
   Southeast Minnesota

CITY           SKY/WX    TMP DP  RH WIND       PRES   REMARKS
ROCHESTER      CLOUDY    63  61  93 E8        29.96S
RED WING       CLOUDY    64  59  82 CALM      29.95S
STANTON        CLOUDY    65  61  85 CALM      29.94S
DODGE CENTER   PTCLDY    63  61  94 E6        29.96S
WINONA         CLOUDY    64  63  94 CALM      29.97R
AUSTIN         CLOUDY    63  61  94 E6        29.94S
PRESTON        CLOUDY    65  59  82 E6        29.97F
$$
ABBREVIATIONS USED IN REMARKS
   TC - TEMPERATURES IN CELSIUS
  WCI - WIND CHILL INDEX
   HX - HEAT INDEX
  VSB - VISIBILITY
$$




USA.gov is the U.S. government's official web portal to all federal, state and local government web resources and services.